owner,sensor,date,latitude,longitude,vertical_datum,direction_of_sea_water_velocity,sea_water_speed,upward_sea_water_velocity,qcFlag 
TABS,ioos:station:TABS:X:1,2017-07-01T00:00:00Z,27.0660,-96.3383,2.0,54.59481495,7.04230076,-99999.0,'11133222,11111222,99999999' 
TABS,ioos:station:TABS:X:1,2017-07-01T00:30:00Z,27.0660,-96.3383,2.0,36.87002189,1.85,-99999.0,'11133222,11111222,99999999' 
TABS,ioos:station:TABS:X:1,2017-07-01T01:00:00Z,27.0660,-96.3383,2.0,32.8105776,6.865223958,-99999.0,'11133222,11111222,99999999' 
TABS,ioos:station:TABS:X:1,2017-07-01T01:30:00Z,27.0660,-96.3383,2.0,18.15460118,10.33444725,-99999.0,'11111222,11111222,99999999' 
TABS,ioos:station:TABS:X:1,2017-07-01T02:00:00Z,27.0660,-96.3383,2.0,355.2310855,17.31996536,-99999.0,'11111222,11111222,99999999' 
TABS,ioos:station:TABS:X:1,2017-07-01T02:30:00Z,27.0660,-96.3383,2.0,359.0530088,18.75256249,-99999.0,'11111222,11144222,99999999' 
TABS,ioos:station:TABS:X:1,2017-07-01T03:00:00Z,27.0660,-96.3383,2.0,354.8523377,23.40440343,-99999.0,'11111222,11111222,99999999' 
TABS,ioos:station:TABS:X:1,2017-07-01T03:30:00Z,27.0660,-96.3383,2.0,352.4251326,29.05355228,-99999.0,'11111222,11111222,99999999' 
TABS,ioos:station:TABS:X:1,2017-07-01T04:00:00Z,27.0660,-96.3383,2.0,349.8883202,28.42147955,-99999.0,'11111222,11111222,99999999' 
TABS,ioos:station:TABS:X:1,2017-07-01T04:30:00Z,27.0660,-96.3383,2.0,351.45576,28.94122319,-99999.0,'11111222,11111222,99999999' 
TABS,ioos:station:TABS:X:1,2017-07-01T05:00:00Z,27.0660,-96.3383,2.0,351.2196502,31.64082489,-99999.0,'11111222,11111222,99999999' 
TABS,ioos:station:TABS:X:1,2017-07-01T05:30:00Z,27.0660,-96.3383,2.0,355.4231675,36.46629403,-99999.0,'11111222,11111222,99999999' 
TABS,ioos:station:TABS:X:1,2017-07-01T06:00:00Z,27.0660,-96.3383,2.0,353.1251967,38.09391027,-99999.0,'11111222,11111222,99999999' 
TABS,ioos:station:TABS:X:1,2017-07-01T06:30:00Z,27.0660,-96.3383,2.0,355.5003081,39.51179697,-99999.0,'11111222,11111222,99999999' 
TABS,ioos:station:TABS:X:1,2017-07-01T07:00:00Z,27.0660,-96.3383,2.0,356.0312621,38.1414748,-99999.0,'11111222,11111222,99999999' 
TABS,ioos:station:TABS:X:1,2017-07-01T07:30:00Z,27.0660,-96.3383,2.0,1.438234412,41.04292631,-99999.0,'11111222,11111222,99999999' 
TABS,ioos:station:TABS:X:1,2017-07-01T08:00:00Z,27.0660,-96.3383,2.0,0.768419373,42.51382128,-99999.0,'11111222,11111222,99999999' 
TABS,ioos:station:TABS:X:1,2017-07-01T08:30:00Z,27.0660,-96.3383,2.0,5.52863506,41.00071463,-99999.0,'11111222,11111222,99999999' 
TABS,ioos:station:TABS:X:1,2017-07-01T09:00:00Z,27.0660,-96.3383,2.0,10.4179124,39.04361151,-99999.0,'11111222,11111222,99999999' 
TABS,ioos:station:TABS:X:1,2017-07-01T09:30:00Z,27.0660,-96.3383,2.0,13.35376668,38.8812204,-99999.0,'11111222,11111222,99999999' 
TABS,ioos:station:TABS:X:1,2017-07-01T10:00:00Z,27.0660,-96.3383,2.0,21.86891463,41.07583718,-99999.0,'11111222,11111222,99999999' 
TABS,ioos:station:TABS:X:1,2017-07-01T10:30:00Z,27.0660,-96.3383,2.0,23.26444625,40.07868885,-99999.0,'11111222,11111222,99999999' 
TABS,ioos:station:TABS:X:1,2017-07-01T11:00:00Z,27.0660,-96.3383,2.0,28.51237394,44.22365543,-99999.0,'11111222,11111222,99999999' 
TABS,ioos:station:TABS:X:1,2017-07-01T11:30:00Z,27.0660,-96.3383,2.0,31.07302902,45.91882947,-99999.0,'11111222,11111222,99999999' 
TABS,ioos:station:TABS:X:1,2017-07-01T12:00:00Z,27.0660,-96.3383,2.0,33.81538978,49.50433718,-99999.0,'11111222,11111222,99999999' 
TABS,ioos:station:TABS:X:1,2017-07-01T12:30:00Z,27.0660,-96.3383,2.0,39.6540629,46.4468212,-99999.0,'11111222,11111222,99999999' 
TABS,ioos:station:TABS:X:1,2017-07-01T13:00:00Z,27.0660,-96.3383,2.0,51.43750928,49.69768606,-99999.0,'11111222,11111222,99999999' 
TABS,ioos:station:TABS:X:1,2017-07-01T13:30:00Z,27.0660,-96.3383,2.0,59.60724496,43.54393758,-99999.0,'11111222,11111222,99999999' 
TABS,ioos:station:TABS:X:1,2017-07-01T14:00:00Z,27.0660,-96.3383,2.0,68.03303963,38.54865627,-99999.0,'11111222,11111222,99999999' 
TABS,ioos:station:TABS:X:1,2017-07-01T14:30:00Z,27.0660,-96.3383,2.0,74.1029592,42.34965053,-99999.0,'11111222,11111222,99999999' 
TABS,ioos:station:TABS:X:1,2017-07-01T15:00:00Z,27.0660,-96.3383,2.0,72.78450516,42.94396931,-99999.0,'11111222,11111222,99999999' 
TABS,ioos:station:TABS:X:1,2017-07-01T15:30:00Z,27.0660,-96.3383,2.0,81.94401704,40.45926964,-99999.0,'11111222,11111222,99999999' 
TABS,ioos:station:TABS:X:1,2017-07-01T16:00:00Z,27.0660,-96.3383,2.0,84.64808152,45.77957296,-99999.0,'11111222,11111222,99999999' 
TABS,ioos:station:TABS:X:1,2017-07-01T16:30:00Z,27.0660,-96.3383,2.0,90.62740359,40.18240909,-99999.0,'11111222,11111222,99999999' 
TABS,ioos:station:TABS:X:1,2017-07-01T17:00:00Z,27.0660,-96.3383,2.0,105.9731486,42.480133,-99999.0,'11111222,11111222,99999999' 
TABS,ioos:station:TABS:X:1,2017-07-01T17:30:00Z,27.0660,-96.3383,2.0,107.6224306,36.79680013,-99999.0,'11111222,11111222,99999999' 
TABS,ioos:station:TABS:X:1,2017-07-01T18:00:00Z,27.0660,-96.3383,2.0,117.9902393,36.49944931,-99999.0,'11111222,11111222,99999999' 
TABS,ioos:station:TABS:X:1,2017-07-01T18:30:00Z,27.0660,-96.3383,2.0,123.1149777,33.71637584,-99999.0,'11111222,11111222,99999999' 
TABS,ioos:station:TABS:X:1,2017-07-01T19:00:00Z,27.0660,-96.3383,2.0,123.5806769,39.25065732,-99999.0,'11111222,11111222,99999999' 
TABS,ioos:station:TABS:X:1,2017-07-01T19:30:00Z,27.0660,-96.3383,2.0,129.757348,35.05651009,-99999.0,'11111222,11111222,99999999' 
TABS,ioos:station:TABS:X:1,2017-07-01T20:00:00Z,27.0660,-96.3383,2.0,136.5329889,26.16524603,-99999.0,'11111222,11111222,99999999' 
TABS,ioos:station:TABS:X:1,2017-07-01T20:30:00Z,27.0660,-96.3383,2.0,137.7870013,24.72141177,-99999.0,'11111222,11111222,99999999' 
TABS,ioos:station:TABS:X:1,2017-07-01T21:00:00Z,27.0660,-96.3383,2.0,142.348484,24.04823694,-99999.0,'11111222,11111222,99999999' 
TABS,ioos:station:TABS:X:1,2017-07-01T21:30:00Z,27.0660,-96.3383,2.0,148.8166166,22.38415958,-99999.0,'11111222,11111222,99999999' 
TABS,ioos:station:TABS:X:1,2017-07-01T22:00:00Z,27.0660,-96.3383,2.0,150.3676213,19.55783475,-99999.0,'11111222,11111222,99999999' 
TABS,ioos:station:TABS:X:1,2017-07-01T22:30:00Z,27.0660,-96.3383,2.0,161.5757703,16.64306763,-99999.0,'11111222,11111222,99999999' 
TABS,ioos:station:TABS:X:1,2017-07-01T23:00:00Z,27.0660,-96.3383,2.0,193.2566335,16.04764157,-99999.0,'11111222,11111222,99999999' 
TABS,ioos:station:TABS:X:1,2017-07-01T23:30:00Z,27.0660,-96.3383,2.0,200.3645957,11.92538888,-99999.0,'11111222,11111222,99999999' 
TABS,ioos:station:TABS:X:1,2017-07-02T00:00:00Z,27.0660,-96.3383,2.0,216.8121905,9.98000501,-99999.0,'11133222,11111222,99999999' 
TABS,ioos:station:TABS:X:1,2017-07-02T00:30:00Z,27.0660,-96.3383,2.0,235.0929822,10.45013397,-99999.0,'11111222,11111222,99999999' 
TABS,ioos:station:TABS:X:1,2017-07-02T01:00:00Z,27.0660,-96.3383,2.0,270.6545768,10.51068504,-99999.0,'11111222,11111222,99999999' 
TABS,ioos:station:TABS:X:1,2017-07-02T01:30:00Z,27.0660,-96.3383,2.0,280.8223498,15.65848013,-99999.0,'11111222,11111222,99999999' 
TABS,ioos:station:TABS:X:1,2017-07-02T02:00:00Z,27.0660,-96.3383,2.0,299.2087453,14.83644499,-99999.0,'11111222,11111222,99999999' 
TABS,ioos:station:TABS:X:1,2017-07-02T02:30:00Z,27.0660,-96.3383,2.0,305.8555654,16.1505325,-99999.0,'11111222,11111222,99999999' 
TABS,ioos:station:TABS:X:1,2017-07-02T03:00:00Z,27.0660,-96.3383,2.0,310.4752696,20.16590439,-99999.0,'11111222,11111222,99999999' 
TABS,ioos:station:TABS:X:1,2017-07-02T03:30:00Z,27.0660,-96.3383,2.0,324.0491847,19.33248561,-99999.0,'11111222,11111222,99999999' 
TABS,ioos:station:TABS:X:1,2017-07-02T04:00:00Z,27.0660,-96.3383,2.0,329.6266249,21.81406198,-99999.0,'11111222,11111222,99999999' 
TABS,ioos:station:TABS:X:1,2017-07-02T04:30:00Z,27.0660,-96.3383,2.0,325.2539321,19.10712171,-99999.0,'11111222,11111222,99999999' 
TABS,ioos:station:TABS:X:1,2017-07-02T05:00:00Z,27.0660,-96.3383,2.0,335.7169072,20.66871065,-99999.0,'11111222,11111222,99999999' 
TABS,ioos:station:TABS:X:1,2017-07-02T05:30:00Z,27.0660,-96.3383,2.0,340.8280168,24.32941635,-99999.0,'11111222,11111222,99999999' 
TABS,ioos:station:TABS:X:1,2017-07-02T06:00:00Z,27.0660,-96.3383,2.0,342.459371,28.16983671,-99999.0,'11111222,11111222,99999999' 
TABS,ioos:station:TABS:X:1,2017-07-02T06:30:00Z,27.0660,-96.3383,2.0,350.9836813,29.16033093,-99999.0,'11111222,11111222,99999999' 
TABS,ioos:station:TABS:X:1,2017-07-02T07:00:00Z,27.0660,-96.3383,2.0,2.714942537,30.61435774,-99999.0,'11111222,11111222,99999999' 
TABS,ioos:station:TABS:X:1,2017-07-02T07:30:00Z,27.0660,-96.3383,2.0,11.31341142,34.1026348,-99999.0,'11111222,11111222,99999999' 
TABS,ioos:station:TABS:X:1,2017-07-02T08:00:00Z,27.0660,-96.3383,2.0,12.74306748,35.99660678,-99999.0,'11111222,11111222,99999999' 
TABS,ioos:station:TABS:X:1,2017-07-02T08:30:00Z,27.0660,-96.3383,2.0,19.48651464,37.74181368,-99999.0,'11111222,11111222,99999999' 
TABS,ioos:station:TABS:X:1,2017-07-02T09:00:00Z,27.0660,-96.3383,2.0,18.22657146,39.9651298,-99999.0,'11111222,11111222,99999999' 
TABS,ioos:station:TABS:X:1,2017-07-02T09:30:00Z,27.0660,-96.3383,2.0,28.03305234,41.72530407,-99999.0,'11111222,11111222,99999999' 
TABS,ioos:station:TABS:X:1,2017-07-02T10:00:00Z,27.0660,-96.3383,2.0,25.63280297,42.04811767,-99999.0,'11111222,11111222,99999999' 
TABS,ioos:station:TABS:X:1,2017-07-02T10:30:00Z,27.0660,-96.3383,2.0,33.13608422,39.00279477,-99999.0,'11111222,11111222,99999999' 
TABS,ioos:station:TABS:X:1,2017-07-02T11:00:00Z,27.0660,-96.3383,2.0,38.7004546,41.95140641,-99999.0,'11111222,11111222,99999999' 
TABS,ioos:station:TABS:X:1,2017-07-02T11:30:00Z,27.0660,-96.3383,2.0,38.59876911,42.4293118,-99999.0,'11111222,11111222,99999999' 
TABS,ioos:station:TABS:X:1,2017-07-02T12:00:00Z,27.0660,-96.3383,2.0,44.20972327,37.93281693,-99999.0,'11111222,11111222,99999999' 
TABS,ioos:station:TABS:X:1,2017-07-02T12:30:00Z,27.0660,-96.3383,2.0,45.85520063,38.37895908,-99999.0,'11111222,11111222,99999999' 
TABS,ioos:station:TABS:X:1,2017-07-02T13:00:00Z,27.0660,-96.3383,2.0,55.29644627,34.18042715,-99999.0,'11111222,11111222,99999999' 
TABS,ioos:station:TABS:X:1,2017-07-02T13:30:00Z,27.0660,-96.3383,2.0,60.1693644,34.77813825,-99999.0,'11111222,11111222,99999999' 
TABS,ioos:station:TABS:X:1,2017-07-02T14:00:00Z,27.0660,-96.3383,2.0,62.37966492,34.96461783,-99999.0,'11111222,11111222,99999999' 
TABS,ioos:station:TABS:X:1,2017-07-02T14:30:00Z,27.0660,-96.3383,2.0,74.82468127,38.43008847,-99999.0,'11111222,11111222,99999999' 
TABS,ioos:station:TABS:X:1,2017-07-02T15:00:00Z,27.0660,-96.3383,2.0,79.29332644,33.15723149,-99999.0,'11111222,11111222,99999999' 
TABS,ioos:station:TABS:X:1,2017-07-02T15:30:00Z,27.0660,-96.3383,2.0,81.01588074,38.80608844,-99999.0,'11111222,11111222,99999999' 
TABS,ioos:station:TABS:X:1,2017-07-02T16:00:00Z,27.0660,-96.3383,2.0,85.52436237,46.26106895,-99999.0,'11111222,11111222,99999999' 
TABS,ioos:station:TABS:X:1,2017-07-02T16:30:00Z,27.0660,-96.3383,2.0,89.29600047,44.76337901,-99999.0,'11111222,11111222,99999999' 
TABS,ioos:station:TABS:X:1,2017-07-02T17:00:00Z,27.0660,-96.3383,2.0,98.31194884,41.4352519,-99999.0,'11111222,11111222,99999999' 
TABS,ioos:station:TABS:X:1,2017-07-02T17:30:00Z,27.0660,-96.3383,2.0,98.12019967,40.99098072,-99999.0,'11111222,11111222,99999999' 
TABS,ioos:station:TABS:X:1,2017-07-02T18:00:00Z,27.0660,-96.3383,2.0,106.7722046,36.837071,-99999.0,'11111222,11111222,99999999' 
TABS,ioos:station:TABS:X:1,2017-07-02T18:30:00Z,27.0660,-96.3383,2.0,106.7344565,35.8064268,-99999.0,'11111222,11111222,99999999' 
TABS,ioos:station:TABS:X:1,2017-07-02T19:00:00Z,27.0660,-96.3383,2.0,105.9796045,34.47201329,-99999.0,'11111222,11111222,99999999' 
TABS,ioos:station:TABS:X:1,2017-07-02T19:30:00Z,27.0660,-96.3383,2.0,112.0586238,32.67156715,-99999.0,'11111222,11111222,99999999' 
TABS,ioos:station:TABS:X:1,2017-07-02T20:00:00Z,27.0660,-96.3383,2.0,138.4119732,28.15740933,-99999.0,'11111222,11111222,99999999' 
TABS,ioos:station:TABS:X:1,2017-07-02T20:30:00Z,27.0660,-96.3383,2.0,152.6140674,22.47926155,-99999.0,'11111222,11111222,99999999' 
TABS,ioos:station:TABS:X:1,2017-07-02T21:00:00Z,27.0660,-96.3383,2.0,169.5486211,24.86247373,-99999.0,'11111222,11111222,99999999' 
TABS,ioos:station:TABS:X:1,2017-07-02T21:30:00Z,27.0660,-96.3383,2.0,179.4817598,22.12090414,-99999.0,'11111222,11111222,99999999' 
TABS,ioos:station:TABS:X:1,2017-07-02T22:00:00Z,27.0660,-96.3383,2.0,188.4983285,17.5931805,-99999.0,'11111222,11111222,99999999' 
TABS,ioos:station:TABS:X:1,2017-07-02T22:30:00Z,27.0660,-96.3383,2.0,189.2730714,16.44492019,-99999.0,'11111222,11111222,99999999' 
TABS,ioos:station:TABS:X:1,2017-07-02T23:00:00Z,27.0660,-96.3383,2.0,197.9016773,16.65643719,-99999.0,'11111222,11111222,99999999' 
TABS,ioos:station:TABS:X:1,2017-07-02T23:30:00Z,27.0660,-96.3383,2.0,200.9816677,14.80143236,-99999.0,'11111222,11111222,99999999' 
TABS,ioos:station:TABS:X:1,2017-07-03T00:00:00Z,27.0660,-96.3383,2.0,214.2325461,9.954541677,-99999.0,'11133222,11111222,99999999' 
TABS,ioos:station:TABS:X:1,2017-07-03T00:30:00Z,27.0660,-96.3383,2.0,231.5056228,10.79633734,-99999.0,'11111222,11111222,99999999' 
TABS,ioos:station:TABS:X:1,2017-07-03T01:00:00Z,27.0660,-96.3383,2.0,249.1126278,11.75229765,-99999.0,'11111222,11111222,99999999' 
TABS,ioos:station:TABS:X:1,2017-07-03T01:30:00Z,27.0660,-96.3383,2.0,254.5674606,13.34099322,-99999.0,'11111222,11111222,99999999' 
TABS,ioos:station:TABS:X:1,2017-07-03T02:00:00Z,27.0660,-96.3383,2.0,273.7504844,11.31422556,-99999.0,'11111222,11111222,99999999' 
TABS,ioos:station:TABS:X:1,2017-07-03T02:30:00Z,27.0660,-96.3383,2.0,268.4439542,16.57610931,-99999.0,'11111222,11111222,99999999' 
TABS,ioos:station:TABS:X:1,2017-07-03T03:00:00Z,27.0660,-96.3383,2.0,273.02083,19.73741878,-99999.0,'11111222,11111222,99999999' 
TABS,ioos:station:TABS:X:1,2017-07-03T03:30:00Z,27.0660,-96.3383,2.0,285.7933269,20.64948668,-99999.0,'11111222,11111222,99999999' 
TABS,ioos:station:TABS:X:1,2017-07-03T04:00:00Z,27.0660,-96.3383,2.0,296.1872264,20.3263007,-99999.0,'11111222,11111222,99999999' 
TABS,ioos:station:TABS:X:1,2017-07-03T04:30:00Z,27.0660,-96.3383,2.0,291.3810464,18.46047128,-99999.0,'11111222,11111222,99999999' 
TABS,ioos:station:TABS:X:1,2017-07-03T05:00:00Z,27.0660,-96.3383,2.0,304.5475373,19.83829882,-99999.0,'11111222,11111222,99999999' 
TABS,ioos:station:TABS:X:1,2017-07-03T05:30:00Z,27.0660,-96.3383,2.0,313.7173755,21.79142262,-99999.0,'11111222,11111222,99999999' 
TABS,ioos:station:TABS:X:1,2017-07-03T06:00:00Z,27.0660,-96.3383,2.0,321.7522132,28.68829901,-99999.0,'11111222,11111222,99999999' 
TABS,ioos:station:TABS:X:1,2017-07-03T06:30:00Z,27.0660,-96.3383,2.0,328.4694705,27.8990412,-99999.0,'11111222,11111222,99999999' 
TABS,ioos:station:TABS:X:1,2017-07-03T07:00:00Z,27.0660,-96.3383,2.0,329.9481864,30.07265369,-99999.0,'11111222,11111222,99999999' 
TABS,ioos:station:TABS:X:1,2017-07-03T07:30:00Z,27.0660,-96.3383,2.0,335.1387612,34.75043885,-99999.0,'11111222,11111222,99999999' 
TABS,ioos:station:TABS:X:1,2017-07-03T08:00:00Z,27.0660,-96.3383,2.0,335.763622,35.22479241,-99999.0,'11111222,11111222,99999999' 
TABS,ioos:station:TABS:X:1,2017-07-03T08:30:00Z,27.0660,-96.3383,2.0,345.0156457,36.78071506,-99999.0,'11111222,11111222,99999999' 
TABS,ioos:station:TABS:X:1,2017-07-03T09:00:00Z,27.0660,-96.3383,2.0,347.8905971,40.32736664,-99999.0,'11111222,11111222,99999999' 
TABS,ioos:station:TABS:X:1,2017-07-03T09:30:00Z,27.0660,-96.3383,2.0,359.5339693,43.01142406,-99999.0,'11111222,11144222,99999999' 
TABS,ioos:station:TABS:X:1,2017-07-03T10:00:00Z,27.0660,-96.3383,2.0,1.787065159,41.04996102,-99999.0,'11111222,11111222,99999999' 
TABS,ioos:station:TABS:X:1,2017-07-03T10:30:00Z,27.0660,-96.3383,2.0,9.076476537,43.67687031,-99999.0,'11111222,11111222,99999999' 
TABS,ioos:station:TABS:X:1,2017-07-03T11:00:00Z,27.0660,-96.3383,2.0,16.79128525,44.20469771,-99999.0,'11111222,11111222,99999999' 
TABS,ioos:station:TABS:X:1,2017-07-03T11:30:00Z,27.0660,-96.3383,2.0,23.43884863,47.31406239,-99999.0,'11111222,11111222,99999999' 
TABS,ioos:station:TABS:X:1,2017-07-03T12:00:00Z,27.0660,-96.3383,2.0,30.51836977,48.52184663,-99999.0,'11111222,11111222,99999999' 
TABS,ioos:station:TABS:X:1,2017-07-03T12:30:00Z,27.0660,-96.3383,2.0,35.87223366,53.17606322,-99999.0,'11111222,11111222,99999999' 
TABS,ioos:station:TABS:X:1,2017-07-03T13:00:00Z,27.0660,-96.3383,2.0,39.72212871,50.04198737,-99999.0,'11111222,11111222,99999999' 
TABS,ioos:station:TABS:X:1,2017-07-03T13:30:00Z,27.0660,-96.3383,2.0,40.36033249,50.52572018,-99999.0,'11111222,11111222,99999999' 
TABS,ioos:station:TABS:X:1,2017-07-03T14:00:00Z,27.0660,-96.3383,2.0,44.62858525,50.16320963,-99999.0,'11111222,11111222,99999999' 
TABS,ioos:station:TABS:X:1,2017-07-03T14:30:00Z,27.0660,-96.3383,2.0,49.53734267,48.89409883,-99999.0,'11111222,11111222,99999999' 
TABS,ioos:station:TABS:X:1,2017-07-03T15:00:00Z,27.0660,-96.3383,2.0,57.52158088,48.13932488,-99999.0,'11111222,11111222,99999999' 
TABS,ioos:station:TABS:X:1,2017-07-03T15:30:00Z,27.0660,-96.3383,2.0,61.33400182,47.69608894,-99999.0,'11111222,11111222,99999999' 
TABS,ioos:station:TABS:X:1,2017-07-03T16:00:00Z,27.0660,-96.3383,2.0,67.04342416,48.81622783,-99999.0,'11111222,11111222,99999999' 
TABS,ioos:station:TABS:X:1,2017-07-03T16:30:00Z,27.0660,-96.3383,2.0,76.6219769,49.61636121,-99999.0,'11111222,11111222,99999999' 
TABS,ioos:station:TABS:X:1,2017-07-03T17:00:00Z,27.0660,-96.3383,2.0,81.24233784,52.9371892,-99999.0,'11111222,11111222,99999999' 
TABS,ioos:station:TABS:X:1,2017-07-03T17:30:00Z,27.0660,-96.3383,2.0,95.67409999,48.44737557,-99999.0,'11111222,11111222,99999999' 
TABS,ioos:station:TABS:X:1,2017-07-03T18:00:00Z,27.0660,-96.3383,2.0,95.51087383,50.8148679,-99999.0,'11111222,11111222,99999999' 
TABS,ioos:station:TABS:X:1,2017-07-03T18:30:00Z,27.0660,-96.3383,2.0,100.4934847,51.33861023,-99999.0,'11111222,11111222,99999999' 
TABS,ioos:station:TABS:X:1,2017-07-03T19:00:00Z,27.0660,-96.3383,2.0,103.7275055,48.1658489,-99999.0,'11111222,11111222,99999999' 
TABS,ioos:station:TABS:X:1,2017-07-03T19:30:00Z,27.0660,-96.3383,2.0,109.7005297,51.11171392,-99999.0,'11111222,11111222,99999999' 
TABS,ioos:station:TABS:X:1,2017-07-03T20:00:00Z,27.0660,-96.3383,2.0,115.5584662,46.84390782,-99999.0,'11111222,11111222,99999999' 
TABS,ioos:station:TABS:X:1,2017-07-03T20:30:00Z,27.0660,-96.3383,2.0,122.3030177,43.65660202,-99999.0,'11111222,11111222,99999999' 
TABS,ioos:station:TABS:X:1,2017-07-03T21:00:00Z,27.0660,-96.3383,2.0,125.7960806,36.07433437,-99999.0,'11111222,11111222,99999999' 
TABS,ioos:station:TABS:X:1,2017-07-03T21:30:00Z,27.0660,-96.3383,2.0,138.3383575,23.79917646,-99999.0,'11111222,11111222,99999999' 
TABS,ioos:station:TABS:X:1,2017-07-03T22:00:00Z,27.0660,-96.3383,2.0,150.1331704,21.58705399,-99999.0,'11111222,11111222,99999999' 
TABS,ioos:station:TABS:X:1,2017-07-03T22:30:00Z,27.0660,-96.3383,2.0,150.2821938,23.50086381,-99999.0,'11111222,11111222,99999999' 
TABS,ioos:station:TABS:X:1,2017-07-03T23:00:00Z,27.0660,-96.3383,2.0,162.7320896,22.97555222,-99999.0,'11111222,11111222,99999999' 
TABS,ioos:station:TABS:X:1,2017-07-03T23:30:00Z,27.0660,-96.3383,2.0,172.8998865,19.82199284,-99999.0,'11111222,11111222,99999999' 
TABS,ioos:station:TABS:X:1,2017-07-04T00:00:00Z,27.0660,-96.3383,2.0,183.732734,15.9738912,-99999.0,'11111222,11111222,99999999' 
TABS,ioos:station:TABS:X:1,2017-07-04T00:30:00Z,27.0660,-96.3383,2.0,189.2231329,17.344244,-99999.0,'11111222,11111222,99999999' 
TABS,ioos:station:TABS:X:1,2017-07-04T01:00:00Z,27.0660,-96.3383,2.0,206.3362068,16.815365,-99999.0,'11111222,11111222,99999999' 
TABS,ioos:station:TABS:X:1,2017-07-04T01:30:00Z,27.0660,-96.3383,2.0,214.3117254,17.11905663,-99999.0,'11111222,11111222,99999999' 
TABS,ioos:station:TABS:X:1,2017-07-04T02:00:00Z,27.0660,-96.3383,2.0,227.0563789,15.3682595,-99999.0,'11111222,11111222,99999999' 
TABS,ioos:station:TABS:X:1,2017-07-04T02:30:00Z,27.0660,-96.3383,2.0,242.1120822,18.40774294,-99999.0,'11111222,11111222,99999999' 
TABS,ioos:station:TABS:X:1,2017-07-04T03:00:00Z,27.0660,-96.3383,2.0,254.4992189,20.69261946,-99999.0,'11111222,11111222,99999999' 
TABS,ioos:station:TABS:X:1,2017-07-04T03:30:00Z,27.0660,-96.3383,2.0,271.5639337,20.15750481,-99999.0,'11111222,11111222,99999999' 
TABS,ioos:station:TABS:X:1,2017-07-04T04:00:00Z,27.0660,-96.3383,2.0,280.8693049,23.44049488,-99999.0,'11111222,11111222,99999999' 
TABS,ioos:station:TABS:X:1,2017-07-04T04:30:00Z,27.0660,-96.3383,2.0,287.7800129,19.35440518,-99999.0,'11111222,11111222,99999999' 
TABS,ioos:station:TABS:X:1,2017-07-04T05:00:00Z,27.0660,-96.3383,2.0,294.9697683,28.42697487,-99999.0,'11111222,11111222,99999999' 
TABS,ioos:station:TABS:X:1,2017-07-04T05:30:00Z,27.0660,-96.3383,2.0,309.9721686,28.2373724,-99999.0,'11111222,11111222,99999999' 
TABS,ioos:station:TABS:X:1,2017-07-04T06:00:00Z,27.0660,-96.3383,2.0,311.7965953,34.79453549,-99999.0,'11111222,11111222,99999999' 
TABS,ioos:station:TABS:X:1,2017-07-04T06:30:00Z,27.0660,-96.3383,2.0,321.1049863,37.23526286,-99999.0,'11111222,11111222,99999999' 
TABS,ioos:station:TABS:X:1,2017-07-04T07:00:00Z,27.0660,-96.3383,2.0,330.6943261,36.75381069,-99999.0,'11111222,11111222,99999999' 
TABS,ioos:station:TABS:X:1,2017-07-04T07:30:00Z,27.0660,-96.3383,2.0,336.5429586,40.4204713,-99999.0,'11111222,11111222,99999999' 
TABS,ioos:station:TABS:X:1,2017-07-04T08:00:00Z,27.0660,-96.3383,2.0,342.3124259,41.47047263,-99999.0,'11111222,11111222,99999999' 
TABS,ioos:station:TABS:X:1,2017-07-04T08:30:00Z,27.0660,-96.3383,2.0,346.0966796,37.70468936,-99999.0,'11111222,11111222,99999999' 
TABS,ioos:station:TABS:X:1,2017-07-04T09:00:00Z,27.0660,-96.3383,2.0,349.8540141,43.93711529,-99999.0,'11111222,11111222,99999999' 
TABS,ioos:station:TABS:X:1,2017-07-04T09:30:00Z,27.0660,-96.3383,2.0,354.7291633,43.32320394,-99999.0,'11111222,11111222,99999999' 
TABS,ioos:station:TABS:X:1,2017-07-04T10:00:00Z,27.0660,-96.3383,2.0,0.000210459,44.53,-99999.0,'11111222,11111222,99999999' 
TABS,ioos:station:TABS:X:1,2017-07-04T10:30:00Z,27.0660,-96.3383,2.0,5.933573137,44.01580284,-99999.0,'11111222,11111222,99999999' 
TABS,ioos:station:TABS:X:1,2017-07-04T11:00:00Z,27.0660,-96.3383,2.0,13.66279271,45.00344209,-99999.0,'11111222,11111222,99999999' 
TABS,ioos:station:TABS:X:1,2017-07-04T11:30:00Z,27.0660,-96.3383,2.0,19.31675092,47.88571499,-99999.0,'11111222,11111222,99999999' 
TABS,ioos:station:TABS:X:1,2017-07-04T12:00:00Z,27.0660,-96.3383,2.0,28.52799037,50.92278468,-99999.0,'11111222,11111222,99999999' 
TABS,ioos:station:TABS:X:1,2017-07-04T12:30:00Z,27.0660,-96.3383,2.0,31.52190461,47.72174452,-99999.0,'11111222,11111222,99999999' 
TABS,ioos:station:TABS:X:1,2017-07-04T13:00:00Z,27.0660,-96.3383,2.0,36.61344882,50.46850602,-99999.0,'11111222,11111222,99999999' 
TABS,ioos:station:TABS:X:1,2017-07-04T13:30:00Z,27.0660,-96.3383,2.0,40.13269438,53.16818033,-99999.0,'11111222,11111222,99999999' 
TABS,ioos:station:TABS:X:1,2017-07-04T14:00:00Z,27.0660,-96.3383,2.0,44.98342527,48.57823793,-99999.0,'11111222,11111222,99999999' 
TABS,ioos:station:TABS:X:1,2017-07-04T14:30:00Z,27.0660,-96.3383,2.0,47.25514952,53.73222962,-99999.0,'11111222,11111222,99999999' 
TABS,ioos:station:TABS:X:1,2017-07-04T15:00:00Z,27.0660,-96.3383,2.0,49.23792484,52.15028763,-99999.0,'11111222,11111222,99999999' 
TABS,ioos:station:TABS:X:1,2017-07-04T15:30:00Z,27.0660,-96.3383,2.0,55.47363789,49.40131577,-99999.0,'11111222,11111222,99999999' 
TABS,ioos:station:TABS:X:1,2017-07-04T16:00:00Z,27.0660,-96.3383,2.0,62.48679799,50.26474709,-99999.0,'11111222,11111222,99999999' 
TABS,ioos:station:TABS:X:1,2017-07-04T16:30:00Z,27.0660,-96.3383,2.0,69.43671054,45.97961505,-99999.0,'11111222,11111222,99999999' 
TABS,ioos:station:TABS:X:1,2017-07-04T17:00:00Z,27.0660,-96.3383,2.0,75.84129751,49.91637106,-99999.0,'11111222,11111222,99999999' 
TABS,ioos:station:TABS:X:1,2017-07-04T17:30:00Z,27.0660,-96.3383,2.0,84.94115631,44.00140111,-99999.0,'11111222,11111222,99999999' 
TABS,ioos:station:TABS:X:1,2017-07-04T18:00:00Z,27.0660,-96.3383,2.0,87.83482261,50.02571539,-99999.0,'11111222,11111222,99999999' 